Tracking 19407 objects as of 14-Dec-2018
HD Live streaming from Space Station
objects crossing your sky now

CICERO 10

Track CICERO 10 now!
10-day predictions


NORAD ID: 43690
Int'l Code: 2018-088A
Perigee: 504.1 km
Apogee: 526.1 km
Inclination: 85.0 °
Period: 94.8 minutes
Semi major axis: 6886 km
RCS: Unknown
Launch date: November 11, 2018
Source: United States (US)
Launch site: Rocket Lab Launch Complex (RLLC)
aabbcc
Your satellite tracking list
Your tracking list is empty




NASA's NSSDC Master Catalog

Two Line Element Set (TLE):
1 43690U 18088A   18347.79196437 +.00001114 +00000-0 +50796-4 0  9994
2 43690 085.0393 081.5123 0015983 164.9059 195.2661 15.19290668004979
Source of the keplerian elements: AFSPC